sat.trackr.live / text

‹ back to catalog

STARLINK-35780

NORAD 66974 · 2025-288R

PAYLOAD ACTIVE UNKNOWN

§ Identity

Operator
Country
US
Launch date
2025-12-08
Launch site
AFETR
Launch vehicle
Mass (kg)
RCS (m²)

Purposes: comms

External: N2YO · Heavens-Above · Gunter

§ Orbital elements

Epoch: 2026-05-24T19:24:34.086240Z

Period
94.27 min
Inclination
43.0003°
Eccentricity
0.0001597
Mean motion
15.27593313 rev/d
Perigee alt
481.9 km
Apogee alt
484.1 km
Semi-major
6,861.1 km
B*
5.8468e-4
RAAN
313.1544°
Arg perigee
271.6536°
Mean anomaly
88.4133°
Rev number
2,693

§ Raw data

STARLINK-357801 66974U 25288R   26144.80872785  .00015868  00000+0  58468-3 0  99902 66974  43.0003 313.1544 0001597 271.6536  88.4133 15.27593313 26933

JSON: /api/v1/satellites/66974 · /tle

For live sub-satellite position, see the globe view (requires WebGL).

§ Visibility from observer

Set your observer location to see the next 7 days of passes ≥ 10°. The values pass through the URL so the page stays shareable.

No JS? Fill the form by hand. The geolocation button needs JavaScript.